Location: Ozark
(37.5425°N, 88.7628°W)
Time: 22:42:58
(UTC+00:00)

Cosmos 1821 Rocket - Pass Details

Date: 26 January 2020
Orbit: 944 x 1005 km, 82.9° (Epoch: 19 February)

Event Time Altitude Azimuth Distance (km) Brightness Sun altitude
Rises 12:09:05 0° 354° (N) 3,649 6.8 -11.0°
Reaches altitude 10° 12:11:36 10° 355° (N) 2,691 6.1 -10.5°
Maximum altitude 12:17:46 82° 83° (E) 962 4.1 -9.4°
Drops below altitude 10° 12:23:49 10° 171° (S) 2,654 6.7 -8.2°
Sets 12:26:17 0° 173° (S) 3,594 7.3 -7.7°
